Regional Weather Roundup
Issued by NWS Green Bay, WI

Home | Current Version | Previous Version | Text Only | Print | Product List | Glossary On
Versions: 1 2 3 4 5 6 7 8 9 10 11 12 13 14 15 16 17 18 19 20 21 22 23 24 25 26 27 28 29 30 31 32 33 34 35 36 37 38 39 40 41 42 43 44 45 46 47 48 49 50
000
ASUS43 KGRB 101800
RWRGRB

NORTH-CENTRAL AND NORTHEAST WISCONSIN REGIONAL WEATHER ROUNDUP
NATIONAL WEATHER SERVICE GREEN BAY WI
1200 PM CST SAT DEC 10 2016

WIZ005-009-010>012-018-019-101900-
NORTH CENTRAL WISCONSIN

CITY           SKY/WX    TMP DP  RH WIND       PRES   REMARKS
IRONWOOD       PTSUNNY    9  -1  64 W12       30.37F WCI  -6
MANITOWISH WTR NOT AVBL
ARBOR VITAE    NOT AVBL
EAGLE RIVER    NOT AVBL
LAND O LAKES   MOSUNNY    9  -1  63 W7        30.33F WCI  -2
RHINELANDER    SUNNY     10  -1  61 W12       30.34F WCI  -5
PHILLIPS       PTSUNNY    7  -2  66 CALM      30.35F
ANTIGO         NOT AVBL
TOMAHAWK       SUNNY     10  -2  59 W3        30.35F
MERRILL        MOSUNNY   10  -1  62 W3        30.37F
$$

WIZ013-073-101900-
NORTHEAST WISCONSIN

CITY           SKY/WX    TMP DP  RH WIND       PRES   REMARKS
IRON MOUNTAIN  SUNNY     16   0  49 W10       30.32F WCI   4
MARINETTE      SUNNY     17   1  49 VRB6      30.39F WCI   9
OCONTO         MOSUNNY   16   4  58 NW8       30.41F WCI   5
$$

WIZ017-030-035>037-045-101900-
CENTRAL WISCONSIN

CITY           SKY/WX    TMP DP  RH WIND       PRES   REMARKS
MEDFORD        NOT AVBL
WAUSAU         MOSUNNY   12   1  61 N8        30.36F WCI   0
MOSINEE        PTSUNNY   12   3  67 NW5       30.38F WCI   4
MARSHFIELD     SUNNY     11   2  67 SW7       30.37F WCI   0
WISC RAPIDS    MOSUNNY   14   4  64 W6        30.42F WCI   5
STEVENS POINT  NOT AVBL
WAUPACA        SUNNY     20   4  50 SW9       30.42F WCI   9
SHAWANO        PTSUNNY   17   4  57 NW8       30.41F WCI   6
CLINTONVILLE   CLOUDY    18   5  57 NW6       30.40F WCI   9
WAUTOMA        PTSUNNY   16   7  67 NW5       30.43F WCI   9
$$

WIZ038-039-048-051-101900-
FOX VALLEY

CITY           SKY/WX    TMP DP  RH WIND       PRES   REMARKS
NWS GREEN BAY  PTSUNNY   20   6  55 NW9       30.40F WCI   9
APPLETON       MOSUNNY   18   1  49 W9        30.38F WCI   6
OSHKOSH        SUNNY     16   6  65 W6        30.41F WCI   7
FOND DU LAC    MOSUNNY   18   5  57 W8        30.43F WCI   8
$$

WIZ022-050-052-101900-
EAST CENTRAL WISCONSIN

CITY           SKY/WX    TMP DP  RH WIND       PRES   REMARKS
EPHRAIM        FAIR      18   3  53 W10       30.36F WCI   6
WASHINGTON ISL FAIR      19   6  55 W10       30.36F WCI   8
STURGEON BAY   CLOUDY    16   6  65 W14       30.39F WCI   2
MANITOWOC      MOSUNNY   19   5  53 W15       30.41F WCI   5
SHEBOYGAN      SUNNY     19   6  57 W14       30.41F WCI   6
$$

LMZ563-521-522-541>543-101900-
LAKESHORE

STATION/POSITION TIME  TEMP    WIND        PRES    VSBY  WAVE
                       AIR SEA DIR/SP/G                  HT/PER
                 (UTC) (F)     (DEG/KT/KT) (MB)    (MI)  (FT/S)
SHEBOYGAN LKSHOR 1700   17     310/ 11/ 13 1031.8F
KEWAUNEE LKSHORE 1730   18     300/  8/ 14 1029.0F
ALGOMA MARINA    1721          320/ 10/ 14   N/A
NORTHPORT PIER   1740   19     280/  8/ 15 1028.4F
SISTER BAY LKSHO 1720   24     310/ 13/ 17   N/A
CHAMBERS ISLAND  1740   19     260/  6/ 14 1028.4F
MENOMINEE LKSHOR 1730   17     290/  9/ 13 1028.5F
$$




USA.gov is the U.S. government's official web portal to all federal, state and local government web resources and services.